Location: Nairn
(57.5833°N, 3.8667°W)
Time: 09:43:54
(UTC+00:00)

Vanguard 1 - Pass Details

Date: 04 December 2020
Orbit: 649 x 3834 km, 34.3° (Epoch: 15 January)

Event Time Altitude Azimuth Distance (km) Brightness Sun altitude
Rises 07:59:26 0° 238° (WSW) 3,986 13.0 -4.9°
Reaches altitude 10° 08:04:26 10° 207° (SSW) 3,615 13.1 -4.3°
Maximum altitude 08:07:20 12° 189° (S) 3,824 13.5 -4.0°
Drops below altitude 10° 08:10:43 10° 171° (S) 4,364 14.1 -3.6°
Sets 08:18:59 0° 146° (SE) 6,278 16.0 -2.8°
